Orbital Elements at Epoch 2459200.5 (2020-Dec-17.0) TDB
Reference: JPL 24 (heliocentric ecliptic J2000)
Element | Value | Uncertainty (1-sigma) | Units |
e | .2016024232291831 | 5.0194e-08 | |
a | 2.612973053788259 | 2.0661e-08 | au |
q | 2.086191354311987 | 1.354e-07 | au |
i | 12.40258486738343 | 5.9241e-06 | deg |
node | 147.9479674355938 | 1.9146e-05 | deg |
peri | 216.0610705415382 | 2.3178e-05 | deg |
M | 236.347101288575 | 1.8806e-05 | deg |
tp | 2459730.410621336283 (2022-May-30.91062134) | 8.558e-05 | TDB |
period | 1542.768715242707 4.22 | 1.8298e-05 5.01e-08 | d yr |
n | .2333467074119176 | 2.7677e-09 | deg/d |
Q | 3.139754753264531 | 2.4826e-08 | au |
|
| | Orbit Determination Parameters
Additional Information
|